ASTRA 1P (SES-24)

Last updated on Sun Apr 12 2026 00:02:56 GMT+0000 (Coordinated Universal Time)

1 60086U 24115A 26101.05877887 .00000121 00000+0 00000+0 0 9995 2 60086 0.0717 31.8214 0003114 290.7403 277.0665 1.00271860 6521
UTC large
Height (km)
Speed (km/s)
/
Latitude / Longitude
Inclination (degrees)
Orbital Period (minutes)
Azimuth
Elevation
Range (km)
Doppler Factor

Next 0 passes for location: London (51.5072 / 0.1276)

Sorry there are no passes over London.
ASTRA 1P (SES-24)